Crane Lake, MN

12:31 PM CDT on July 29, 2016 (GMT -0500)
Crane Lake

Weather History for KCDD - January, 2013

Change the Weather History Date:

Thursday, January 24, 2013

  Actual Average Record
Temperature  
Mean Temperature -18 °F -  
Max Temperature 1 °F 15 °F 33 °F (2006)
Min Temperature -36 °F 0 °F -36 °F (2013)
Degree Days  
Heating Degree Days 82    
Moisture  
Dew Point -24 °F    
Average Humidity 70    
Maximum Humidity 92    
Minimum Humidity 55    
Precipitation  
Precipitation 0.03 in - - ()
Sea Level Pressure  
Sea Level Pressure 30.46 in    
Wind  
Wind Speed 1 mph (SSE)    
Max Wind Speed 6 mph    
Max Gust Speed -    
Visibility 8 miles    
Events Snow    
Averages and records for this station are not official NWS values.
T = Trace of Precipitation, MM = Missing Value Source: NWS Daily Summary

Daily Weather History Graph

Daily Weather History Graph

Search for Another Location

Airport or City:

Trip Planner

Search our weather history database for the weather conditions in past years. The results will help you decide how hot, cold, wet, or windy it might be!

Date:

Astronomy

Jan. 24, 2013 Rise Set
Actual Time 7:47 AM CST 4:57 PM CST
Civil Twilight 7:13 AM CST 5:31 PM CST
Nautical Twilight 6:35 AM CST 6:09 PM CST
Astronomical Twilight 5:58 AM CST 6:46 PM CST
Moon 2:57 PM CST (1/24) 5:48 AM CST (1/24)
Length of Visible Light 10h 18m
Length of Day
9h 09m
Waxing Gibbous, 94% of the Moon is Illuminated
Jan 24
Waxing Gibbous
Jan 26
Full
Feb 3
Last Quarter
Feb 10
New
Feb 17
First Quarter

Hourly Weather History & Observations

Time (CST) Temp. Windchill Dew Point Humidity Pressure Visibility Wind Dir Wind Speed Gust Speed Precip Events Conditions
12:13 AM -32.8 °F - -38.2 °F 75% 30.62 in 10.0 mi Calm Calm - N/A   Clear
12:33 AM -32.8 °F - -40.0 °F 68% 30.62 in 10.0 mi Calm Calm - N/A   Clear
12:53 AM -32.8 °F - -40.0 °F 68% 30.61 in 10.0 mi Calm Calm - N/A   Clear
1:13 AM -32.8 °F - -40.0 °F 68% 30.61 in 10.0 mi Calm Calm - N/A   Clear
1:33 AM -34.6 °F - -41.8 °F 68% 30.62 in 10.0 mi Calm Calm - N/A   Clear
1:53 AM -34.6 °F - -41.8 °F 68% 30.63 in 10.0 mi Calm Calm - N/A   Clear
2:13 AM -34.6 °F - -41.8 °F 68% 30.63 in 10.0 mi Calm Calm - N/A   Clear
2:33 AM -34.6 °F - -41.8 °F 68% 30.63 in 10.0 mi Calm Calm - N/A   Clear
2:53 AM -34.6 °F - -43.6 °F 61% 30.62 in 10.0 mi Calm Calm - N/A   Clear
3:13 AM -34.6 °F - -43.6 °F 61% 30.62 in 10.0 mi Calm Calm - N/A   Clear
3:33 AM -36.4 °F - -43.6 °F 67% 30.62 in 10.0 mi Calm Calm - N/A   Clear
3:53 AM -36.4 °F - -43.6 °F 67% 30.62 in 10.0 mi Calm Calm - N/A   Clear
4:13 AM -36.4 °F - -43.6 °F 67% 30.63 in 10.0 mi Calm Calm - N/A   Clear
4:33 AM -36.4 °F - -43.6 °F 67% 30.62 in 10.0 mi Calm Calm - N/A   Clear
4:53 AM -36.4 °F - -43.6 °F 67% 30.62 in 10.0 mi Calm Calm - N/A   Clear
5:13 AM -36.4 °F - -43.6 °F 67% 30.62 in 10.0 mi Calm Calm - N/A   Clear
5:34 AM -36.4 °F - -43.6 °F 67% 30.62 in 10.0 mi Calm Calm - N/A   Clear
5:53 AM -36.4 °F - -43.6 °F 67% 30.62 in 10.0 mi Calm Calm - N/A   Clear
6:13 AM -36.4 °F - -43.6 °F 67% 30.63 in 10.0 mi Calm Calm - N/A   Clear
6:33 AM -36.4 °F - -43.6 °F 67% 30.64 in 10.0 mi Calm Calm - N/A   Clear
6:53 AM -36.4 °F - -43.6 °F 67% 30.63 in 10.0 mi Calm Calm - N/A   Clear
7:13 AM -36.4 °F - -43.6 °F 67% 30.64 in 10.0 mi Calm Calm - N/A   Clear
7:33 AM -36.4 °F - -43.6 °F 67% 30.64 in 10.0 mi Calm Calm - N/A   Clear
7:53 AM -34.6 °F - -41.8 °F 68% 30.62 in 10.0 mi Calm Calm - N/A   Clear
8:13 AM -34.6 °F - -41.8 °F 68% 30.61 in 10.0 mi Calm Calm - N/A   Clear
8:33 AM -32.8 °F - -40.0 °F 68% 30.60 in 10.0 mi Calm Calm - N/A   Clear
8:53 AM -31.0 °F - -36.4 °F 75% 30.60 in 10.0 mi Calm Calm - N/A   Clear
9:13 AM -27.4 °F - -34.6 °F 69% 30.60 in 10.0 mi Calm Calm - N/A   Clear
9:34 AM -25.6 °F - -31.0 °F 76% 30.61 in 10.0 mi Calm Calm - N/A   Clear
9:53 AM -22.0 °F - -27.4 °F 76% 30.60 in 10.0 mi Calm Calm - N/A   Clear
10:13 AM -16.6 °F - -20.2 °F 84% 30.59 in 10.0 mi Calm Calm - N/A   Clear
10:33 AM -11.2 °F - -16.6 °F 77% 30.58 in 10.0 mi Calm Calm - N/A   Clear
10:53 AM -11.2 °F - -18.4 °F 70% 30.56 in 10.0 mi Calm Calm - N/A   Clear
11:13 AM -11.2 °F - -16.6 °F 77% 30.57 in 10.0 mi Calm Calm - N/A   Clear
11:33 AM -11.2 °F - -16.6 °F 77% 30.56 in 10.0 mi Calm Calm - N/A   Clear
11:53 AM -9.4 °F -18.6 °F -16.6 °F 71% 30.55 in 10.0 mi South 3.5 mph - N/A   Clear
12:13 PM -9.4 °F -18.6 °F -16.6 °F 71% 30.54 in 10.0 mi SE 3.5 mph - N/A   Clear
12:33 PM -7.6 °F -20.6 °F -16.6 °F 65% 30.52 in 10.0 mi SSE 5.8 mph - N/A   Clear
12:53 PM -5.8 °F -14.5 °F -16.6 °F 60% 30.50 in 10.0 mi SE 3.5 mph - N/A   Clear
1:13 PM -5.8 °F - -16.6 °F 60% 30.49 in 10.0 mi Calm Calm - N/A   Clear
1:33 PM -5.8 °F -16.7 °F -16.6 °F 60% 30.48 in 10.0 mi SSE 4.6 mph - N/A   Clear
1:53 PM -5.8 °F -14.5 °F -18.4 °F 55% 30.47 in 10.0 mi SE 3.5 mph - N/A   Clear
2:14 PM -5.8 °F -14.5 °F -18.4 °F 55% 30.46 in 10.0 mi South 3.5 mph - N/A   Clear
2:33 PM -5.8 °F -14.5 °F -16.6 °F 60% 30.45 in - South 3.5 mph - N/A   Scattered Clouds
2:54 PM -5.8 °F - -16.6 °F 60% 30.43 in 10.0 mi North - - N/A   Scattered Clouds
3:13 PM -5.8 °F - -16.6 °F 60% 30.41 in 10.0 mi Calm Calm - N/A   Clear
3:33 PM -5.8 °F -14.5 °F -16.6 °F 60% 30.40 in 10.0 mi SSE 3.5 mph - N/A   Scattered Clouds
3:53 PM -5.8 °F -16.7 °F -16.6 °F 60% 30.38 in 10.0 mi SSE 4.6 mph - N/A   Scattered Clouds
4:13 PM -4.0 °F -12.4 °F -14.8 °F 60% 30.38 in 10.0 mi SSE 3.5 mph - N/A   Mostly Cloudy
4:33 PM -4.0 °F - -14.8 °F 60% 30.36 in 10.0 mi Calm Calm - N/A   Overcast
4:53 PM -4.0 °F - -14.8 °F 60% 30.36 in 10.0 mi Calm Calm - N/A   Overcast
5:13 PM -4.0 °F - -14.8 °F 60% 30.35 in 7.0 mi Calm Calm - N/A Snow Light Snow
5:33 PM -4.0 °F - -13.0 °F 65% 30.34 in 1.5 mi Calm Calm - N/A Snow Light Snow
5:53 PM -4.0 °F - -11.2 °F 71% 30.33 in 1.8 mi Calm Calm - N/A Snow Light Snow
6:13 PM -4.0 °F - -11.2 °F 71% 30.32 in 10.0 mi Calm Calm - N/A   Overcast
6:33 PM -2.2 °F - -9.4 °F 71% 30.31 in 1.2 mi Calm Calm - N/A Snow Light Snow
6:53 PM -2.2 °F - -9.4 °F 71% 30.29 in 1.2 mi Calm Calm - N/A Snow Light Snow
7:13 PM -2.2 °F - -9.4 °F 71% 30.27 in 1.0 mi Calm Calm - N/A Snow Light Snow
7:33 PM -2.2 °F - -7.6 °F 78% 30.25 in 0.8 mi Calm Calm - N/A Snow Light Snow
7:53 PM -2.2 °F - -7.6 °F 78% 30.23 in 0.8 mi Calm Calm - 0.01 in Snow Light Snow
8:13 PM -2.2 °F - -5.8 °F 85% 30.23 in 1.0 mi Calm Calm - N/A Snow Light Snow
8:33 PM -0.4 °F -8.3 °F -5.8 °F 78% 30.21 in 0.5 mi SE 3.5 mph - N/A Snow Light Snow
8:53 PM -0.4 °F -8.3 °F -5.8 °F 78% 30.19 in 0.5 mi SE 3.5 mph - N/A Snow Light Snow
9:13 PM -0.4 °F -12.0 °F -4.0 °F 85% 30.19 in 0.8 mi SSE 5.8 mph - N/A Snow Light Snow
9:33 PM -0.4 °F -8.3 °F -4.0 °F 85% 30.18 in 1.0 mi SSE 3.5 mph - N/A Snow Light Snow
9:53 PM -0.4 °F -10.4 °F -4.0 °F 85% 30.16 in 0.8 mi SSE 4.6 mph - N/A Snow Light Snow
10:13 PM 1.4 °F -8.3 °F -2.2 °F 85% 30.14 in 1.0 mi SSE 4.6 mph - N/A Snow Light Snow
10:33 PM 1.4 °F -9.9 °F -2.2 °F 85% 30.12 in 1.0 mi SSE 5.8 mph - N/A Snow Light Snow
10:53 PM 1.4 °F -6.2 °F -2.2 °F 85% 30.11 in 0.8 mi SSE 3.5 mph - N/A Snow Light Snow
11:13 PM 1.4 °F -9.9 °F -2.2 °F 85% 30.10 in 1.2 mi SSE 5.8 mph - N/A Snow Light Snow
11:33 PM 1.4 °F -9.9 °F -0.4 °F 92% 30.10 in 7.0 mi SSE 5.8 mph - N/A Snow Light Snow
11:53 PM 1.4 °F -6.2 °F -0.4 °F 92% 30.09 in 2.0 mi SSE 3.5 mph - 0.02 in Snow Light Snow